EUTELSAT 115 WEST B

Last updated on Tue Jul 14 2026 00:03:06 GMT+0000 (Coordinated Universal Time)

1 40425U 15010B 26193.61154752 -.00000024 00000+0 00000+0 0 9999 2 40425 0.0077 162.3972 0000372 285.0504 308.3118 1.00271195 41631
UTC large
Height (km)
Speed (km/s)
/
Latitude / Longitude
Inclination (degrees)
Orbital Period (minutes)
Azimuth
Elevation
Range (km)
Doppler Factor

Next 0 passes for location: London (51.5072 / 0.1276)

No passes found over London.
EUTELSAT 115 WEST B